星链-3559 (STARLINK-3559 )

导读

STARLINK-3559是美国太空探索技术公司SpaceX星链星座中的一员,于2022年3月3日发射升空。星链项目旨在构建全球卫星互联网星座,为全球范围提供高速宽带互联网服务,这颗卫星入轨后承担了相应的通信组网任务,助力完善星链星座的全球覆盖能力。

Basic Information
目录编号:
51860
目录名称:
STARLINK-3559
国际标识:
2022-022J
轨道中心:
EARTH
卫星名称:
星链-3559
卫星全名:
星链-3559 (STARLINK-3559 )
卫星状态:
在轨 (已飞行1654 天)
发射日期:
2022-03-03 UTC
国别 :
美国 (US)
星等 :
--
This satellite is enrolled in the Space Conjunction Data Service (SCDS) and the current flight risk assessment level is: No High Risk
Orbit Information
数据来源 国际轨道数据 AOE轨道数据
星历时间 2026-09-12T00:23:08+0800
14小时前
查看轨道信息
2026-09-11T00:00:00+0800
1天前
查看轨道信息
半长轴 6840.873km 6840.901km
偏心率 0.0001258 0.0001273
轨道倾角 53.161° 53.159°
近地点辐角 93.103° 82.835°
升交点赤经 244.635° 249.385°
平近点角 267.011° 61.604°
近地点 461.875km 461.893km
远地点 463.597km 463.635km
周期 93.848分钟 93.849分钟
每日圈数 15.343893 15.343796
Detailed Information
固有亮度:
5
最大亮度:
2.5
卫星平台:
Starlink v1.5
覆盖范围:
全球
运营商:
太空探索技术公司
运营商所在国:
美国
制造商(研发单位):
太空探索技术公司
制造商所在国:
美国
使用方式:
暂无
Satellite Introduction
星链(Starlink)计划是由太空探索技术公司(SpaceX)提出的一个巨型低轨卫星互联网星座项目,计划在2019年至2024年间在太空搭建由约1.2万颗卫星组成的“星链”网络,其中1584颗将部署在地球上空550千米处的近地轨道,并从2020年开始工作。该卫星仍在工作。
2D Orbit Map
3D Orbit Map
Orbit Altitude Analysis Chart
Orbit Inclination Analysis Chart
Orbit Comprehensive Analysis Chart
View Comprehensive Chart
Conjunction Data List
Event ID Objects TCA Miss Dist (km) Collision Risk Probability Collision Risk Index (CRI) Action
CDM_260914-040905-186006-588722
2026-09-14T
04:09:04+0000
0.468 km
远距离
8.233674E-5 中风险 0.73
CDM_260914-062905-186006-588722
2026-09-14T
06:29:45+0000
0.871 km
远距离
1.225359E-5 中风险 0.57
CDM_260913-103905-186006-622523
2026-09-13T
10:39:59+0000
1.247 km
极远距离
1.088157E-5 中风险 0.56
CDM_260914-061205-186006-622521
2026-09-14T
06:12:22+0000
1.462 km
极远距离
6.335384E-6 低风险 0.51
CDM_260913-121305-186006-622523
2026-09-13T
12:13:46+0000
1.487 km
极远距离
6.000797E-6 低风险 0.51
CDM_260914-043805-186006-622521
2026-09-14T
04:38:34+0000
1.726 km
极远距离
3.765226E-6 低风险 0.47
CDM_260912-205105-186006-491822
2026-09-12T
20:51:09+0000
1.901 km
极远距离
1.613891E-6 低风险 0.39
CDM_260912-231105-186006-491822
2026-09-12T
23:11:49+0000
1.937 km
极远距离
1.539576E-6 低风险 0.39
CDM_260912-191705-186006-491822
2026-09-12T
19:17:21+0000
2.231 km
极远距离
1.123268E-6 低风险 0.36
Miss Distance Evolution Trend with All Objects
Collision Probability Evolution Trend with All Objects